Grand Forks AFB, ND

12:19 AM CST on November 23, 2017 (GMT -0600)
Grand Forks Air Force Base

Weather History for KRDR - October, 2012

Change the Weather History Date:

Friday, October 5, 2012

  Actual Average Record
Temperature  
Mean Temperature 34 °F -  
Max Temperature 36 °F 59 °F 88 °F (2011)
Min Temperature 32 °F 35 °F 23 °F (2001)
Degree Days  
Heating Degree Days 31    
Moisture  
Dew Point 31 °F    
Average Humidity 86    
Maximum Humidity 94    
Minimum Humidity 75    
Precipitation  
Precipitation 0.06 in - - ()
Sea Level Pressure  
Sea Level Pressure 30.24 in    
Wind  
Wind Speed 17 mph (NNW)    
Max Wind Speed 22 mph    
Max Gust Speed 30 mph    
Visibility 10 miles    
Events Rain , Snow    
Averages and records for this station are not official NWS values.
T = Trace of Precipitation, MM = Missing Value Source: NWS Daily Summary

Daily Weather History Graph

Daily Weather History Graph

Search for Another Location

Airport or City:

Trip Planner

Search our weather history database for the weather conditions in past years. The results will help you decide how hot, cold, wet, or windy it might be!

Date:

Astronomy

Oct. 05, 2012 Rise Set
Actual Time 7:35 AM CDT 6:59 PM CDT
Civil Twilight 7:04 AM CDT 7:30 PM CDT
Nautical Twilight 6:28 AM CDT 8:06 PM CDT
Astronomical Twilight 5:51 AM CDT 8:42 PM CDT
Moon 10:03 PM CDT (10/5) 1:05 PM CDT (10/5)
Length of Visible Light 12h 26m
Length of Day
11h 24m
Waning Gibbous, 74% of the Moon is Illuminated
Oct 5
Waning Gibbous
Oct 8
Last Quarter
Oct 15
New
Oct 21
First Quarter
Oct 29
Full

Hourly Weather History & Observations

Time (CDT) Temp. Windchill Dew Point Humidity Pressure Visibility Wind Dir Wind Speed Gust Speed Precip Events Conditions
12:12 AM 33.8 °F 22.8 °F 26.6 °F 75% 30.19 in 10.0 mi NW 18.4 mph 26.5 mph N/A   Scattered Clouds
12:55 AM 33.6 °F 22.6 °F 27.1 °F 77% 30.19 in 10.0 mi NNW 18.4 mph 25.3 mph N/A   Clear
1:55 AM 34.0 °F 22.7 °F 27.0 °F 75% 30.19 in 10.0 mi NW 19.6 mph 25.3 mph N/A   Clear
2:55 AM 33.6 °F 22.9 °F 26.8 °F 76% 30.18 in 10.0 mi NW 17.3 mph 24.2 mph N/A   Mostly Cloudy
3:55 AM 33.3 °F 22.8 °F 26.6 °F 77% 30.17 in 10.0 mi NW 16.1 mph 23.0 mph N/A   Clear
4:51 AM 33.8 °F 22.5 °F 26.6 °F 75% 30.17 in 10.0 mi NNW 19.6 mph 26.5 mph N/A   Partly Cloudy
5:22 AM 33.8 °F 22.5 °F 26.6 °F 75% 30.17 in 10.0 mi NW 19.6 mph 26.5 mph N/A   Clear
5:39 AM 33.8 °F 22.2 °F 26.6 °F 75% 30.17 in 10.0 mi NW 20.7 mph 27.6 mph N/A Rain Light Rain
5:51 AM 33.8 °F 23.2 °F 26.6 °F 75% 30.17 in 10.0 mi NNW 17.3 mph 27.6 mph N/A Rain Light Rain
5:55 AM 33.3 °F 21.8 °F 26.8 °F 77% 30.17 in 10.0 mi NW 19.6 mph 27.6 mph 0.00 in Rain Light Rain
6:04 AM 33.8 °F 23.2 °F 26.6 °F 75% 30.17 in 10.0 mi NNW 17.3 mph 25.3 mph N/A Rain Light Rain
6:43 AM 32.0 °F 20.1 °F 26.6 °F 80% 30.17 in 10.0 mi NW 19.6 mph 25.3 mph N/A   Scattered Clouds
6:53 AM 33.8 °F 22.5 °F 26.6 °F 75% 30.17 in 10.0 mi NW 19.6 mph 27.6 mph N/A Rain Light Rain
6:55 AM 32.9 °F 21.0 °F 26.8 °F 78% 30.17 in 10.0 mi NW 20.7 mph 26.5 mph 0.00 in   Mostly Cloudy
7:02 AM 33.8 °F 23.2 °F 26.6 °F 75% 30.17 in 10.0 mi NW 17.3 mph 27.6 mph N/A   Mostly Cloudy
7:55 AM 33.1 °F 21.5 °F 27.0 °F 78% 30.17 in 10.0 mi NW 19.6 mph 25.3 mph 0.00 in   Overcast
8:55 AM 33.8 °F 21.9 °F 27.5 °F 78% 30.19 in 10.0 mi NW 21.9 mph 26.5 mph N/A   Overcast
9:04 AM 33.8 °F 22.5 °F 28.4 °F 81% 30.19 in 10.0 mi NNW 19.6 mph 28.8 mph N/A Rain Light Rain
9:55 AM 34.7 °F 24.0 °F 28.4 °F 78% 30.20 in 10.0 mi NNW 18.4 mph 27.6 mph 0.00 in Rain Light Rain
10:55 AM 35.2 °F 24.4 °F 29.3 °F 79% 30.22 in 9.0 mi NNW 19.6 mph 29.9 mph 0.00 in Rain Light Rain
11:55 AM 36.0 °F 25.0 °F 30.2 °F 80% 30.22 in 9.0 mi NNW 20.7 mph 28.8 mph 0.00 in Snow Light Snow
12:53 PM 35.6 °F 25.5 °F 32.0 °F 87% 30.24 in 6.0 mi NNW 17.3 mph 29.9 mph N/A Snow Light Snow
12:55 PM 35.1 °F 25.2 °F 31.8 °F 88% 30.23 in 5.0 mi NNW 16.1 mph 29.9 mph 0.00 in Snow Light Snow
1:03 PM 35.6 °F 25.9 °F 32.0 °F 87% 30.24 in 9.0 mi NNW 16.1 mph 26.5 mph N/A Snow Light Snow
1:05 PM 35.6 °F 25.9 °F 32.0 °F 87% 30.24 in 9.0 mi NNW 16.1 mph 25.3 mph N/A Snow Light Snow
1:30 PM 35.6 °F 25.9 °F 33.8 °F 93% 30.24 in 9.0 mi NNW 16.1 mph 27.6 mph N/A   Overcast
1:32 PM 35.6 °F 26.2 °F 33.8 °F 93% 30.24 in 9.0 mi NNW 15.0 mph 27.6 mph N/A   Overcast
1:34 PM 35.6 °F 26.2 °F 33.8 °F 93% 30.24 in 9.0 mi NNW 15.0 mph 27.6 mph N/A Rain Light Rain
1:38 PM 35.6 °F 25.5 °F 33.8 °F 93% 30.24 in 10.0 mi NNW 17.3 mph 26.5 mph N/A Snow Light Snow
1:55 PM 35.2 °F 25.8 °F 32.5 °F 90% 30.24 in 10.0 mi NNW 15.0 mph 27.6 mph 0.01 in Snow Light Snow
2:03 PM 35.6 °F 25.5 °F 32.0 °F 87% 30.24 in 10.0 mi NNW 17.3 mph 29.9 mph N/A Snow Light Snow
2:10 PM 35.6 °F 25.2 °F 32.0 °F 87% 30.24 in 10.0 mi NNW 18.4 mph 23.0 mph N/A Snow Light Snow
2:13 PM 35.6 °F 24.8 °F 32.0 °F 87% 30.23 in 10.0 mi NNW 19.6 mph 26.5 mph N/A Snow Light Snow
2:15 PM 35.6 °F 24.2 °F 32.0 °F 87% 30.23 in 10.0 mi North 21.9 mph 26.5 mph N/A Snow Light Snow
2:17 PM 35.6 °F 25.9 °F 32.0 °F 87% 30.23 in 10.0 mi North 16.1 mph 26.5 mph N/A Snow Light Snow
2:42 PM 35.6 °F 25.2 °F 32.0 °F 87% 30.24 in 10.0 mi NNW 18.4 mph 23.0 mph N/A Snow Light Snow
2:43 PM 35.6 °F 25.2 °F 32.0 °F 87% 30.24 in 10.0 mi North 18.4 mph 23.0 mph N/A Snow Light Snow
2:55 PM 34.3 °F 24.6 °F 32.0 °F 91% 30.24 in 10.0 mi NNW 15.0 mph 23.0 mph 0.01 in Snow Light Snow
3:01 PM 33.8 °F 23.5 °F 32.0 °F 93% 30.24 in 10.0 mi North 16.1 mph 23.0 mph N/A Snow Light Snow
3:05 PM 33.8 °F 24.8 °F 32.0 °F 93% 30.24 in 10.0 mi NNW 12.7 mph 21.9 mph N/A Snow Light Snow
3:06 PM 33.8 °F 23.9 °F 32.0 °F 93% 30.24 in 10.0 mi NNW 15.0 mph 21.9 mph N/A Snow Light Snow
3:14 PM 35.6 °F 25.9 °F 32.0 °F 87% 30.24 in 10.0 mi NNW 16.1 mph 23.0 mph N/A Snow Light Snow
3:22 PM 35.6 °F 26.2 °F 32.0 °F 87% 30.24 in 10.0 mi NNW 15.0 mph 24.2 mph N/A Snow Light Snow
3:30 PM 35.6 °F 25.5 °F 32.0 °F 87% 30.24 in 10.0 mi North 17.3 mph 26.5 mph N/A Snow Light Snow
3:38 PM 35.6 °F 25.9 °F 32.0 °F 87% 30.24 in 10.0 mi NNW 16.1 mph 26.5 mph N/A Snow Light Snow
3:43 PM 35.6 °F 24.5 °F 32.0 °F 87% 30.24 in 10.0 mi NNW 20.7 mph 26.5 mph N/A Snow Light Snow
3:50 PM 35.6 °F 25.2 °F 32.0 °F 87% 30.24 in 9.0 mi NNW 18.4 mph 26.5 mph N/A Snow Light Snow
3:55 PM 35.2 °F 25.4 °F 32.5 °F 90% 30.25 in 9.0 mi NNW 16.1 mph 26.5 mph 0.00 in Snow Light Snow
3:56 PM 35.6 °F 25.2 °F 32.0 °F 87% 30.25 in 9.0 mi North 18.4 mph 26.5 mph N/A Snow Light Snow
4:00 PM 35.6 °F 24.8 °F 32.0 °F 87% 30.25 in 10.0 mi NNW 19.6 mph 24.2 mph N/A Snow Light Snow
4:11 PM 35.6 °F 25.5 °F 33.8 °F 93% 30.25 in 10.0 mi NNW 17.3 mph 25.3 mph N/A Rain Light Rain
4:47 PM 35.6 °F 25.9 °F 32.0 °F 87% 30.25 in 10.0 mi NNW 16.1 mph 25.3 mph N/A Snow Light Snow
4:53 PM 33.8 °F 22.8 °F 32.0 °F 93% 30.25 in 10.0 mi North 18.4 mph 23.0 mph N/A Snow Light Snow
4:55 PM 34.7 °F 24.3 °F 32.2 °F 91% 30.25 in 10.0 mi North 17.3 mph 23.0 mph 0.01 in Snow Light Snow
5:11 PM 35.6 °F 26.2 °F 32.0 °F 87% 30.26 in 10.0 mi NNW 15.0 mph 23.0 mph N/A Snow Light Snow
5:39 PM 33.8 °F 24.8 °F 32.0 °F 93% 30.26 in 10.0 mi NNW 12.7 mph - N/A Snow Light Snow
5:55 PM 34.7 °F 25.5 °F 32.5 °F 92% 30.27 in 10.0 mi North 13.8 mph 21.9 mph 0.01 in Snow Light Snow
6:01 PM 35.6 °F 27.1 °F 32.0 °F 87% 30.27 in 10.0 mi NNW 12.7 mph - N/A Rain Light Rain
6:10 PM 35.6 °F 25.2 °F 32.0 °F 87% 30.27 in 10.0 mi North 18.4 mph - N/A Rain Light Rain
6:14 PM 35.6 °F 25.9 °F 32.0 °F 87% 30.27 in 10.0 mi North 16.1 mph - N/A   Overcast
6:16 PM 35.6 °F 25.5 °F 32.0 °F 87% 30.27 in 10.0 mi North 17.3 mph - N/A   Overcast
6:18 PM 35.6 °F 24.8 °F 32.0 °F 87% 30.27 in 10.0 mi North 19.6 mph - N/A Rain Light Rain
6:19 PM 35.6 °F 25.5 °F 32.0 °F 87% 30.27 in 10.0 mi NNW 17.3 mph - N/A   Overcast
6:20 PM 35.6 °F 25.5 °F 32.0 °F 87% 30.27 in 10.0 mi North 17.3 mph - N/A Rain Light Rain
6:27 PM 35.6 °F 25.5 °F 32.0 °F 87% 30.27 in 10.0 mi North 17.3 mph - N/A Rain Light Rain
6:51 PM 33.8 °F 23.5 °F 32.0 °F 93% 30.28 in 10.0 mi North 16.1 mph - N/A Rain Light Rain
7:10 PM 33.8 °F 24.3 °F 32.0 °F 93% 30.29 in 10.0 mi North 13.8 mph - N/A Rain Light Rain
7:26 PM 33.8 °F 24.3 °F 32.0 °F 93% 30.29 in 10.0 mi North 13.8 mph - N/A Snow Light Snow
7:28 PM 33.8 °F 25.3 °F 32.0 °F 93% 30.29 in 10.0 mi North 11.5 mph - N/A Snow Light Snow
7:34 PM 33.8 °F 25.8 °F 32.0 °F 93% 30.30 in 10.0 mi North 10.4 mph - N/A   Overcast
7:55 PM 33.6 °F 24.6 °F 32.0 °F 94% 30.30 in 10.0 mi North 12.7 mph - 0.01 in Snow Light Snow
8:31 PM 33.8 °F 23.2 °F 32.0 °F 93% 30.31 in 10.0 mi North 17.3 mph - N/A Snow Light Snow
8:49 PM 33.8 °F 23.9 °F 32.0 °F 93% 30.31 in 10.0 mi North 15.0 mph - N/A Snow Light Snow
8:55 PM 33.6 °F 23.3 °F 31.6 °F 92% 30.31 in 10.0 mi North 16.1 mph 21.9 mph 0.01 in Snow Light Snow
8:58 PM 33.8 °F 24.3 °F 32.0 °F 93% 30.31 in 10.0 mi North 13.8 mph 21.9 mph N/A Snow Light Snow
9:01 PM 33.8 °F 24.3 °F 32.0 °F 93% 30.31 in 10.0 mi North 13.8 mph 21.9 mph N/A Snow Light Snow
9:12 PM 33.8 °F 24.3 °F 32.0 °F 93% 30.32 in 10.0 mi North 13.8 mph 21.9 mph N/A   Overcast
9:25 PM 33.8 °F 23.9 °F 30.2 °F 87% 30.32 in 10.0 mi North 15.0 mph - N/A   Overcast
9:55 PM 33.8 °F 24.3 °F 30.2 °F 87% 30.32 in 10.0 mi North 13.8 mph 21.9 mph 0.00 in   Overcast
10:07 PM 33.8 °F 23.5 °F 30.2 °F 87% 30.32 in 10.0 mi North 16.1 mph 20.7 mph N/A   Overcast
10:29 PM 33.8 °F 24.3 °F 30.2 °F 87% 30.32 in 10.0 mi North 13.8 mph 17.3 mph N/A   Overcast
10:55 PM 33.6 °F 24.1 °F 30.2 °F 87% 30.32 in 10.0 mi North 13.8 mph - N/A   Overcast
11:55 PM 33.8 °F 25.8 °F 30.4 °F 87% 30.33 in 10.0 mi North 10.4 mph - N/A   Overcast